Sigfox identifier Datetime Temperature Humidity SNR
00393919 2018-10-09 08:57:48 20.6 40 19.6
00393919 2018-10-09 07:53:12 20.6 40 19.5
00393919 2018-10-09 06:48:36 20.6 40 19.6
00393919 2018-10-09 05:43:59 20.6 39 19.4
00393919 2018-10-09 04:39:26 20.6 39 19.1
00393919 2018-10-09 01:25:44 20.5 39 18.6
00393919 2018-10-09 00:21:12 20.5 39 18.6
00393919 2018-10-08 23:16:37 20.5 39 18.3
00393919 2018-10-08 22:12:01 20.4 39 18.3
00393919 2018-10-08 21:07:28 20.5 39 18.2
00393919 2018-10-08 20:02:52 20.5 39 18.3
00393919 2018-10-08 18:58:20 20.4 39 18.4
00393919 2018-10-08 17:53:47 20.4 39 18.4
00393919 2018-10-08 16:49:15 20.4 39 18.4
00393919 2018-10-08 15:44:38 20.4 39 15
00393919 2018-10-08 14:40:03 20.3 39 14.4
00393919 2018-10-08 13:35:30 20.2 39 14.2
00393919 2018-10-08 12:30:57 20.2 39 14.5
00393919 2018-10-08 11:26:21 20.2 39 14.5
00393919 2018-10-08 10:21:50 20.2 39 14.6
00393919 2018-10-08 09:17:14 20.3 39 14.5
00393919 2018-10-08 08:12:40 20.2 39 14.6
00393919 2018-10-08 06:03:34 20.4 39 14.5
00393919 2018-10-08 04:59:01 20.4 39 14.3
00393919 2018-10-08 03:54:25 20.4 39 14.3
00393919 2018-10-08 02:49:51 20.4 39 14.1
00393919 2018-10-08 01:45:15 20.4 39 14.1
00393919 2018-10-08 00:40:38 20.4 39 14
00393919 2018-10-07 23:36:03 20.4 39 14.3
00393919 2018-10-07 22:31:31 20.4 39 14.5
00393919 2018-10-07 21:26:56 20.4 39 14.5
00393919 2018-10-07 20:22:21 20.4 39 14.5
00393919 2018-10-07 19:17:47 20.4 39 14.6
00393919 2018-10-07 18:13:13 20.5 39 14.5
00393919 2018-10-07 17:08:42 20.5 39 14.5
00393919 2018-10-07 16:04:09 20.6 39 14.5
00393919 2018-10-07 14:59:28 20.6 39 14.4
00393919 2018-10-07 13:54:53 20.6 39 14.3
00393919 2018-10-07 12:50:17 20.6 40 14.6
00393919 2018-10-07 11:45:45 20.6 40 14.5
00393919 2018-10-07 10:41:11 20.6 40 14.7
00393919 2018-10-07 09:36:34 20.6 40 14.9
00393919 2018-10-07 08:31:54 20.6 40 14.7
00393919 2018-10-07 07:27:17 20.6 40 14.7
00393919 2018-10-07 06:22:40 20.6 40 15
00393919 2018-10-07 05:18:02 20.6 40 15.3
00393919 2018-10-07 04:13:26 20.7 40 15.1
00393919 2018-10-07 03:08:47 20.7 40 15.1
00393919 2018-10-07 02:04:07 20.7 40 15.4
00393919 2018-10-07 00:59:28 20.8 40 15.4
00393919 2018-10-06 23:54:49 20.8 40 15.7
00393919 2018-10-06 22:50:10 20.8 40 15.8
00393919 2018-10-06 21:45:33 20.8 40 15.9
00393919 2018-10-06 20:40:51 20.8 40 15.6
00393919 2018-10-06 19:36:12 20.8 40 15.5
00393919 2018-10-06 18:31:34 20.8 40 15.7
00393919 2018-10-06 17:26:54 20.8 40 16
00393919 2018-10-06 16:22:19 20.8 40 16
00393919 2018-10-06 15:17:38 20.8 40 16
00393919 2018-10-06 14:13:00 20.8 40 15.9
00393919 2018-10-06 13:08:24 20.8 40 15.9
00393919 2018-10-06 12:03:49 20.9 40 15.9
00393919 2018-10-06 10:59:16 20.8 40 16.3
00393919 2018-10-06 09:54:35 20.9 40 16.7
00393919 2018-10-06 08:49:52 20.9 40 16.8
00393919 2018-10-06 07:45:16 20.9 40 16.8
00393919 2018-10-06 06:40:35 21 40 16.9
00393919 2018-10-06 05:35:58 21 40 17.2
00393919 2018-10-06 04:31:23 21 40 17.2
00393919 2018-10-06 03:26:45 21 40 17
00393919 2018-10-06 02:22:05 21 40 16.9
00393919 2018-10-06 01:17:25 21 40 16.9
00393919 2018-10-06 00:12:44 21 40 17.3
00393919 2018-10-05 23:08:07 21 40 17.2
00393919 2018-10-05 22:03:24 21 40 17
00393919 2018-10-05 20:58:45 21 40 17
00393919 2018-10-05 19:54:03 21 40 17
00393919 2018-10-05 18:49:24 21 40 17.2
00393919 2018-10-05 17:44:47 21 40 17.3
00393919 2018-10-05 15:35:36 21 39 17.5
00393919 2018-10-05 14:30:55 21 39 17.4
00393919 2018-10-05 13:26:21 21 39 17.2
00393919 2018-10-05 12:21:41 21 39 17.3
00393919 2018-10-05 11:17:06 20.8 38 17.4
00393919 2018-10-05 10:12:26 20.6 36 17.5
00393919 2018-10-05 08:03:10 20.5 32 17.5
00393919 2018-10-05 06:58:30 20.5 31 17.7
00393919 2018-10-05 05:53:49 20.6 30 17.4
00393919 2018-10-05 04:49:09 20.6 30 16.8
00393919 2018-10-05 03:44:30 20.6 30 16.8
00393919 2018-10-05 02:39:54 20.6 31 16.8
00393919 2018-10-05 01:35:17 20.6 31 16.4
00393919 2018-10-04 23:26:04 20.8 31 16
00393919 2018-10-04 21:16:55 20.8 31 16.1
00393919 2018-10-04 20:12:14 20.8 31 16.8
00393919 2018-10-04 19:07:32 20.8 31 16.9
00393919 2018-10-04 18:02:59 20.7 30 17.7
00393919 2018-10-04 16:58:23 20.7 31 14.2
00393919 2018-10-04 15:53:46 20.7 31 15.4
00393919 2018-10-04 14:49:11 20.8 32 18.1
00393919 2018-10-04 13:44:40 20.2 41 0